Time,TemperatureF,DewpointF,PressureIn,WindDirection,WindDirectionDegrees,WindSpeedMPH,WindSpeedGustMPH,Humidity,HourlyPrecipIn,Conditions,Clouds,dailyrainin,SoftwareType,DateUTC
2013-09-06 00:05:00,75.8,15.4,29.68,North,0,0.0,0.0,1,0.00,,,0.00,WUHU216HW,2013-09-06 04:05:00,
2013-09-06 00:35:00,75.6,15.2,29.68,North,0,0.0,0.0,1,0.00,,,0.00,WUHU216HW,2013-09-06 04:35:00,
2013-09-06 01:05:00,75.6,15.2,29.68,North,0,0.0,0.0,1,0.00,,,0.00,WUHU216HW,2013-09-06 05:05:00,
2013-09-06 01:10:00,75.6,15.2,29.68,North,0,0.0,0.0,1,0.00,,,0.00,WUHU216HW,2013-09-06 05:10:00,
2013-09-06 01:35:00,75.4,15.1,29.67,North,0,0.0,0.0,1,0.00,,,0.00,WUHU216HW,2013-09-06 05:35:00,
2013-09-06 02:05:00,75.2,14.9,29.66,North,0,0.0,0.0,1,0.00,,,0.00,WUHU216HW,2013-09-06 06:05:00,
2013-09-06 02:35:00,75.2,14.9,29.65,North,0,0.0,0.0,1,0.00,,,0.00,WUHU216HW,2013-09-06 06:35:00,
2013-09-06 03:05:00,74.9,14.7,29.65,North,0,0.0,0.0,1,0.00,,,0.00,WUHU216HW,2013-09-06 07:05:00,
2013-09-06 03:35:00,74.9,14.7,29.66,North,0,0.0,0.0,1,0.00,,,0.00,WUHU216HW,2013-09-06 07:35:00,
2013-09-06 04:05:00,74.9,14.7,29.66,North,0,0.0,0.0,1,0.00,,,0.00,WUHU216HW,2013-09-06 08:05:00,
2013-09-06 04:35:00,74.9,14.7,29.65,North,0,0.0,0.0,1,0.00,,,0.00,WUHU216HW,2013-09-06 08:35:00,
2013-09-06 05:05:00,74.7,14.6,29.65,North,0,0.0,0.0,1,0.00,,,0.00,WUHU216HW,2013-09-06 09:05:00,
2013-09-06 05:35:00,74.9,14.7,29.66,North,0,0.0,0.0,1,0.00,,,0.00,WUHU216HW,2013-09-06 09:35:00,
2013-09-06 06:05:00,74.5,14.4,29.66,North,0,0.0,0.0,1,0.00,,,0.00,WUHU216HW,2013-09-06 10:05:00,
2013-09-06 06:10:00,74.5,14.4,29.66,North,0,0.0,0.0,1,0.00,,,0.00,WUHU216HW,2013-09-06 10:10:00,
2013-09-06 06:35:00,74.7,14.6,29.65,North,0,0.0,0.0,1,0.00,,,0.00,WUHU216HW,2013-09-06 10:35:00,
2013-09-06 07:05:00,74.3,14.3,29.66,North,0,0.0,0.0,1,0.00,,,0.00,WUHU216HW,2013-09-06 11:05:00,
2013-09-06 07:10:00,74.3,14.3,29.66,North,0,0.0,0.0,1,0.00,,,0.00,WUHU216HW,2013-09-06 11:10:00,
2013-09-06 07:35:00,74.5,14.4,29.66,North,0,0.0,0.0,1,0.00,,,0.00,WUHU216HW,2013-09-06 11:35:00,
2013-09-06 08:05:00,74.5,14.4,29.67,North,0,0.0,0.0,1,0.00,,,0.00,WUHU216HW,2013-09-06 12:05:00,
2013-09-06 08:10:00,74.5,14.4,29.67,North,0,0.0,0.0,1,0.00,,,0.00,WUHU216HW,2013-09-06 12:10:00,
2013-09-06 08:35:00,75.8,15.4,29.68,North,0,0.0,0.0,1,0.00,,,0.00,WUHU216HW,2013-09-06 12:35:00,
2013-09-06 09:05:00,77.8,16.9,29.68,North,0,0.0,0.0,1,0.00,,,0.00,WUHU216HW,2013-09-06 13:05:00,
2013-09-06 09:35:00,79.6,18.2,29.68,North,0,0.0,0.0,1,0.00,,,0.00,WUHU216HW,2013-09-06 13:35:00,
2013-09-06 10:05:00,80.1,18.6,29.68,North,0,0.0,0.0,1,0.00,,,0.00,WUHU216HW,2013-09-06 14:05:00,
2013-09-06 10:35:00,80.5,18.9,29.69,North,0,0.0,0.0,1,0.00,,,0.00,WUHU216HW,2013-09-06 14:35:00,
2013-09-06 11:05:00,84.2,21.8,29.68,North,0,0.0,0.0,1,0.00,,,0.00,WUHU216HW,2013-09-06 15:05:00,
2013-09-06 11:35:00,86.8,23.8,29.68,North,0,0.0,0.0,1,0.00,,,0.00,WUHU216HW,2013-09-06 15:35:00,
2013-09-06 12:05:00,90.0,26.2,29.67,North,0,0.0,0.0,1,0.00,,,0.00,WUHU216HW,2013-09-06 16:05:00,
2013-09-06 12:35:00,94.5,29.6,29.66,North,0,0.0,0.0,1,0.00,,,0.00,WUHU216HW,2013-09-06 16:35:00,
2013-09-06 13:05:00,92.9,28.4,29.65,North,0,0.0,0.0,1,0.00,,,0.00,WUHU216HW,2013-09-06 17:05:00,
2013-09-06 13:35:00,92.2,27.9,29.63,North,0,0.0,0.0,1,0.00,,,0.00,WUHU216HW,2013-09-06 17:35:00,
2013-09-06 14:05:00,92.2,27.9,29.62,North,0,0.0,0.0,1,0.00,,,0.00,WUHU216HW,2013-09-06 18:05:00,
2013-09-06 14:35:00,85.1,22.5,29.65,North,0,0.0,0.0,1,0.00,,,0.00,WUHU216HW,2013-09-06 18:35:00,
2013-09-06 15:05:00,76.5,15.9,29.67,North,0,0.0,0.0,1,0.00,,,0.00,WUHU216HW,2013-09-06 19:05:00,
2013-09-06 15:35:00,74.7,14.6,29.67,North,0,0.0,0.0,1,0.00,,,0.00,WUHU216HW,2013-09-06 19:35:00,
2013-09-06 16:05:00,72.7,13.2,29.64,North,0,0.0,0.0,1,0.00,,,0.00,WUHU216HW,2013-09-06 20:05:00,
2013-09-06 16:35:00,72.0,12.5,29.62,North,0,0.0,0.0,1,0.00,,,0.00,WUHU216HW,2013-09-06 20:35:00,
2013-09-06 17:05:00,71.6,12.2,29.64,North,0,0.0,0.0,1,0.00,,,0.00,WUHU216HW,2013-09-06 21:05:00,
2013-09-06 17:35:00,71.8,12.4,29.64,North,0,0.0,0.0,1,0.00,,,0.00,WUHU216HW,2013-09-06 21:35:00,
2013-09-06 18:05:00,71.8,12.4,29.62,North,0,0.0,0.0,1,0.00,,,0.00,WUHU216HW,2013-09-06 22:05:00,
2013-09-06 18:35:00,72.4,12.8,29.62,North,0,0.0,0.0,1,0.00,,,0.00,WUHU216HW,2013-09-06 22:35:00,
2013-09-06 19:05:00,72.7,13.2,29.64,North,0,0.0,0.0,1,0.00,,,0.00,WUHU216HW,2013-09-06 23:05:00,
2013-09-06 19:35:00,72.9,13.2,29.64,North,0,0.0,0.0,1,0.00,,,0.00,WUHU216HW,2013-09-06 23:35:00,
2013-09-06 20:05:00,72.7,13.2,29.64,North,0,0.0,0.0,1,0.00,,,0.00,WUHU216HW,2013-09-07 00:05:00,
2013-09-06 20:10:00,72.7,13.2,29.64,North,0,0.0,0.0,1,0.00,,,0.00,WUHU216HW,2013-09-07 00:10:00,
2013-09-06 20:35:00,72.5,13.0,29.64,North,0,0.0,0.0,1,0.00,,,0.00,WUHU216HW,2013-09-07 00:35:00,
2013-09-06 21:00:00,72.7,13.2,29.62,North,0,0.0,0.0,1,0.00,,,0.00,WUHU216HW,2013-09-07 01:00:00,
2013-09-06 21:05:00,72.7,13.2,29.62,North,0,0.0,0.0,1,0.00,,,0.00,WUHU216HW,2013-09-07 01:05:00,
2013-09-06 21:35:00,72.7,13.2,29.62,North,0,0.0,0.0,1,0.00,,,0.00,WUHU216HW,2013-09-07 01:35:00,
2013-09-06 22:05:00,72.9,13.2,29.61,North,0,0.0,0.0,1,0.00,,,0.00,WUHU216HW,2013-09-07 02:05:00,
2013-09-06 22:35:00,72.9,13.2,29.61,North,0,0.0,0.0,1,0.00,,,0.00,WUHU216HW,2013-09-07 02:35:00,
2013-09-06 23:05:00,73.1,13.4,29.64,North,0,0.0,0.0,1,0.00,,,0.00,WUHU216HW,2013-09-07 03:05:00,
2013-09-06 23:10:00,73.1,13.4,29.64,North,0,0.0,0.0,1,0.00,,,0.00,WUHU216HW,2013-09-07 03:10:00,
2013-09-06 23:35:00,73.3,13.5,29.65,North,0,0.0,0.0,1,0.00,,,0.00,WUHU216HW,2013-09-07 03:35:00,